McCutcheon Field, NC

9:26 AM EST on February 23, 2017 (GMT -0500)
New River Marine Corps Air Station

Weather History for KNCA - December, 2014

Change the Weather History Date:

Wednesday, December 24, 2014

  Actual Average Record
Temperature  
Mean Temperature 62 °F -  
Max Temperature 71 °F 52 °F 78 °F (2015)
Min Temperature 53 °F 32 °F 21 °F (2000)
Degree Days  
Heating Degree Days 3    
Growing Degree Days 12 (Base 50)    
Moisture  
Dew Point 64 °F    
Average Humidity 93    
Maximum Humidity 100    
Minimum Humidity 84    
Precipitation  
Precipitation 3.03 in - - ()
Sea Level Pressure  
Sea Level Pressure 29.83 in    
Wind  
Wind Speed 8 mph (South)    
Max Wind Speed 26 mph    
Max Gust Speed 38 mph    
Visibility 4 miles    
Events Fog , Rain , Thunderstorm    
Averages and records for this station are not official NWS values.
T = Trace of Precipitation, MM = Missing Value Source: NWS Daily Summary

Daily Weather History Graph

Daily Weather History Graph

Search for Another Location

Airport or City:

Trip Planner

Search our weather history database for the weather conditions in past years. The results will help you decide how hot, cold, wet, or windy it might be!

Date:

Astronomy

Dec. 24, 2014 Rise Set
Actual Time 7:14 AM EST 5:04 PM EST
Civil Twilight 6:46 AM EST 5:32 PM EST
Nautical Twilight 6:14 AM EST 6:03 PM EST
Astronomical Twilight 5:44 AM EST 6:34 PM EST
Moon 9:10 AM EST (12/24) 8:19 PM EST (12/24)
Length of Visible Light 10h 45m
Length of Day
9h 49m
Waxing Crescent, 9% of the Moon is Illuminated
Dec 24
Waxing Crescent
Dec 28
First Quarter
Jan 4
Full
Jan 13
Last Quarter
Jan 20
New

Hourly Weather History & Observations

Time (EST) Temp. Dew Point Humidity Pressure Visibility Wind Dir Wind Speed Gust Speed Precip Events Conditions
12:28 AM 54.0 °F 54.0 °F 100% 29.96 in 6.0 mi ENE 4.6 mph - 0.01 in Rain Light Rain
12:52 AM 53.6 °F 53.6 °F 100% 29.96 in 6.0 mi SSE 3.5 mph - 0.01 in   Overcast
12:56 AM 54.0 °F 54.0 °F 100% 29.95 in 6.0 mi ENE 5.8 mph - 0.01 in   Overcast
1:18 AM 55.0 °F 55.0 °F 100% 29.94 in 1.8 mi ESE 4.6 mph - 0.00 in Rain Light Rain
1:22 AM 55.9 °F 55.0 °F 97% 29.94 in 0.8 mi East 4.6 mph - 0.01 in Rain Light Rain
1:32 AM 55.0 °F 55.0 °F 100% 29.94 in 0.5 mi Calm Calm - 0.01 in Fog , Rain Light Rain
1:53 AM 55.4 °F 55.4 °F 100% 29.93 in 0.2 mi SSE 4.6 mph - 0.02 in Fog , Rain Light Rain
1:56 AM 55.9 °F 55.0 °F 97% 29.94 in 0.2 mi SSE 4.6 mph - 0.02 in Fog Fog
2:21 AM 55.9 °F 55.9 °F 100% 29.93 in 0.2 mi Calm Calm - 0.01 in Fog , Rain Light Rain
2:26 AM 55.9 °F 55.9 °F 100% 29.93 in 0.2 mi Calm Calm - 0.01 in Fog , Rain Light Rain
2:35 AM 57.0 °F 55.9 °F 96% 29.93 in 0.5 mi Calm Calm - 0.01 in Fog Fog
2:45 AM 57.0 °F 55.9 °F 96% 29.92 in 0.8 mi East 3.5 mph - 0.01 in   Overcast
2:56 AM 57.9 °F 57.0 °F 97% 29.94 in 0.8 mi Calm Calm - 0.01 in Rain Light Rain
2:59 AM 59.0 °F 57.9 °F 96% 29.93 in 1.2 mi Calm Calm - 0.00 in Rain Light Rain
3:08 AM 57.9 °F 57.0 °F 97% 29.92 in 1.0 mi Calm Calm - 0.00 in Rain Light Rain
3:22 AM 57.0 °F 55.9 °F 96% 29.91 in 0.8 mi Calm Calm - 0.00 in   Overcast
3:29 AM 59.0 °F 57.9 °F 96% 29.90 in 0.5 mi Calm Calm - 0.00 in Fog Fog
3:37 AM 59.0 °F 59.0 °F 100% 29.89 in 0.2 mi ESE 5.8 mph - 0.00 in Fog Fog
3:56 AM 64.0 °F 63.0 °F 96% 29.90 in 0.2 mi SE 8.1 mph - 0.01 in Fog Fog
4:11 AM 64.0 °F 63.0 °F 96% 29.87 in 0.5 mi SE 11.5 mph - N/A Fog Fog
4:19 AM 64.0 °F 63.0 °F 96% 29.86 in 1.0 mi SE 11.5 mph - N/A   Mist
4:23 AM 64.0 °F 63.0 °F 96% 29.86 in 2.0 mi SE 11.5 mph - N/A   Overcast
4:30 AM 64.0 °F 63.0 °F 96% 29.85 in 7.0 mi SE 11.5 mph - N/A   Overcast
4:45 AM 64.0 °F 63.0 °F 96% 29.84 in 10.0 mi SE 10.4 mph - N/A   Overcast
4:56 AM 64.0 °F 63.0 °F 96% 29.86 in 10.0 mi SE 9.2 mph - N/A   Mostly Cloudy
5:11 AM 64.9 °F 64.0 °F 97% 29.85 in 10.0 mi SSE 6.9 mph - N/A   Partly Cloudy
5:53 AM 66.2 °F 64.4 °F 94% 29.85 in 10.0 mi SSE 8.1 mph - N/A   Mostly Cloudy
5:56 AM 66.9 °F 64.9 °F 93% 29.86 in 10.0 mi South 8.1 mph - N/A   Mostly Cloudy
6:56 AM 69.1 °F 66.0 °F 90% 29.87 in 10.0 mi South 11.5 mph - N/A   Overcast
7:56 AM 70.0 °F 66.9 °F 90% 29.88 in 10.0 mi South 15.0 mph - N/A   Overcast
8:04 AM 70.0 °F 66.9 °F 90% 29.86 in 10.0 mi South 15.0 mph 21.9 mph N/A   Overcast
8:21 AM 70.0 °F 66.9 °F 90% 29.86 in 6.0 mi South 13.8 mph 21.9 mph 0.00 in Rain Light Rain
8:56 AM 70.0 °F 66.9 °F 90% 29.87 in 8.0 mi South 15.0 mph 23.0 mph 0.01 in Rain Light Rain
9:17 AM 70.0 °F 66.9 °F 90% 29.86 in 2.5 mi South 19.6 mph 28.8 mph 0.05 in Rain Light Rain
9:26 AM 70.0 °F 68.0 °F 93% 29.85 in 4.0 mi South 16.1 mph 28.8 mph 0.06 in Rain Light Rain
9:56 AM 70.0 °F 66.9 °F 90% 29.86 in 6.0 mi South 17.3 mph 28.8 mph 0.07 in Rain Light Rain
10:19 AM 70.0 °F 68.0 °F 93% 29.86 in 6.0 mi South 12.7 mph - 0.00 in Rain Light Rain
10:34 AM 70.0 °F 66.9 °F 90% 29.85 in 1.8 mi South 17.3 mph 25.3 mph 0.06 in Rain Heavy Rain
10:40 AM 70.0 °F 68.0 °F 93% 29.85 in 2.0 mi South 17.3 mph 26.5 mph 0.08 in Rain Rain
10:54 AM 69.8 °F 68.0 °F 94% 29.85 in 1.2 mi South 15.0 mph 26.5 mph 0.18 in Rain Heavy Rain
10:56 AM 70.0 °F 68.0 °F 93% 29.86 in 1.2 mi South 11.5 mph 26.5 mph 0.22 in Rain Heavy Rain
11:02 AM 69.1 °F 68.0 °F 96% 29.84 in 2.0 mi South 15.0 mph 24.2 mph 0.03 in Rain Rain
11:06 AM 69.1 °F 68.0 °F 96% 29.84 in 3.0 mi South 15.0 mph 24.2 mph 0.05 in Rain Rain
11:14 AM 69.1 °F 68.0 °F 96% 29.82 in 2.5 mi SSE 11.5 mph - 0.10 in Rain Rain
11:32 AM 70.0 °F 68.0 °F 93% 29.80 in 3.0 mi South 20.7 mph 31.1 mph 0.17 in Rain Light Rain
11:41 AM 70.0 °F 66.9 °F 90% 29.80 in 2.5 mi South 20.7 mph 31.1 mph 0.20 in Rain Rain
11:56 AM 69.1 °F 66.9 °F 93% 29.79 in 1.8 mi SSE 23.0 mph 28.8 mph 0.28 in Rain Heavy Rain
12:03 PM 69.1 °F 66.9 °F 93% 29.77 in 2.0 mi South 26.5 mph 38.0 mph 0.03 in Rain Rain
12:09 PM 69.1 °F 66.9 °F 93% 29.81 in 2.0 mi SW 13.8 mph 38.0 mph 0.06 in Rain Rain
12:19 PM 70.0 °F 68.0 °F 93% 29.81 in 2.5 mi SW 11.5 mph 20.7 mph 0.11 in Rain Rain
12:28 PM 69.1 °F 68.0 °F 96% 29.82 in 1.0 mi SW 12.7 mph 18.4 mph 0.30 in Rain Heavy Rain
12:33 PM 69.1 °F 68.0 °F 96% 29.80 in 0.5 mi Variable 6.9 mph 18.4 mph 0.47 in Fog , Rain Heavy Rain
12:43 PM 70.0 °F 68.0 °F 93% 29.80 in 0.8 mi South 10.4 mph 25.3 mph 0.57 in Rain Heavy Rain
12:48 PM 69.1 °F 68.0 °F 96% 29.78 in 1.2 mi SSW 5.8 mph 25.3 mph 0.58 in Rain Light Rain
12:52 PM 69.8 °F 68.0 °F 94% 29.79 in 2.5 mi SSW 6.9 mph - 0.58 in Rain Light Rain
12:56 PM 70.0 °F 68.0 °F 93% 29.80 in 7.0 mi South 17.3 mph 27.6 mph 0.58 in Rain Light Rain
1:00 PM 70.0 °F 66.9 °F 90% 29.79 in 2.5 mi South 15.0 mph 27.6 mph 0.03 in Rain Heavy Rain
1:07 PM 69.1 °F 66.9 °F 93% 29.80 in 1.0 mi SSW 11.5 mph 25.3 mph 0.12 in Rain Heavy Rain
1:11 PM 69.1 °F 66.9 °F 93% 29.79 in 0.5 mi South 10.4 mph 18.4 mph 0.23 in Fog , Rain Heavy Rain
1:19 PM 69.1 °F 66.9 °F 93% 29.79 in 1.0 mi SSW 9.2 mph - 0.27 in Rain Rain
1:22 PM 69.1 °F 68.0 °F 96% 29.78 in 2.0 mi SSW 6.9 mph 17.3 mph 0.27 in Rain Light Rain
1:30 PM 70.0 °F 68.0 °F 93% 29.78 in 7.0 mi SSW 8.1 mph - 0.27 in Rain Light Rain
1:56 PM 70.0 °F 68.0 °F 93% 29.78 in 10.0 mi South 8.1 mph - 0.27 in   Overcast
2:43 PM 71.1 °F 68.0 °F 90% 29.78 in 1.2 mi SW 6.9 mph - 0.11 in Rain Rain
2:45 PM 71.1 °F 68.0 °F 90% 29.78 in 0.8 mi SW 8.1 mph - 0.22 in Rain Heavy Rain
2:48 PM 70.0 °F 68.0 °F 93% 29.77 in 0.2 mi West 8.1 mph - 0.40 in Fog , Rain Heavy Rain
2:56 PM 70.0 °F 69.1 °F 97% 29.78 in 0.2 mi WSW 15.0 mph 23.0 mph 0.81 in Fog , Rain Heavy Rain
3:03 PM 71.1 °F 68.0 °F 90% 29.78 in 0.5 mi SW 16.1 mph 23.0 mph 0.05 in Fog , Rain Rain
3:05 PM 71.1 °F 68.0 °F 90% 29.77 in 0.8 mi SW 12.7 mph 23.0 mph 0.05 in Rain Light Rain
3:07 PM 71.1 °F 68.0 °F 90% 29.77 in 2.0 mi SW 11.5 mph 23.0 mph 0.05 in Rain Light Rain
3:14 PM 71.1 °F 68.0 °F 90% 29.77 in 4.0 mi SW 10.4 mph - 0.07 in Rain Rain
3:16 PM 71.1 °F 68.0 °F 90% 29.77 in 2.0 mi SW 9.2 mph - 0.10 in Rain Rain
3:20 PM 71.1 °F 68.0 °F 90% 29.76 in 1.0 mi SW 18.4 mph 25.3 mph 0.16 in Rain Heavy Rain
3:27 PM 71.1 °F 66.9 °F 87% 29.76 in 0.8 mi SW 16.1 mph 32.2 mph 0.26 in Rain Heavy Rain
3:32 PM 70.0 °F 68.0 °F 93% 29.76 in 1.0 mi SW 15.0 mph 32.2 mph 0.32 in Rain Heavy Rain
3:40 PM 71.1 °F 68.0 °F 90% 29.77 in 1.5 mi SW 15.0 mph 24.2 mph 0.37 in Rain Heavy Rain
3:46 PM 71.1 °F 68.0 °F 90% 29.77 in 3.0 mi SW 11.5 mph 23.0 mph 0.37 in Rain Light Rain
3:56 PM 71.1 °F 68.0 °F 90% 29.77 in 10.0 mi SW 6.9 mph 18.4 mph 0.37 in Rain Light Rain
4:03 PM 71.1 °F 69.1 °F 93% 29.81 in 2.5 mi West 19.6 mph 25.3 mph 0.10 in Rain Light Rain
4:07 PM 70.0 °F 66.9 °F 90% 29.79 in 1.5 mi West 21.9 mph 31.1 mph 0.14 in Rain , Thunderstorm Heavy Thunderstorms and Rain
4:14 PM 69.1 °F 64.9 °F 87% 29.80 in 2.0 mi WSW 17.3 mph 33.4 mph 0.19 in Rain , Thunderstorm Light Thunderstorms and Rain
4:22 PM 68.0 °F 64.9 °F 90% 29.81 in 5.0 mi SW 10.4 mph 24.2 mph 0.21 in Rain Rain
4:33 PM 66.9 °F 64.0 °F 90% 29.81 in 2.5 mi SW 13.8 mph - 0.28 in Rain Heavy Rain
4:41 PM 66.0 °F 64.0 °F 93% 29.80 in 3.0 mi SW 11.5 mph 19.6 mph 0.31 in Rain Rain
4:56 PM 66.0 °F 64.0 °F 93% 29.81 in 7.0 mi SSW 9.2 mph - 0.33 in Rain Light Rain
5:56 PM 66.0 °F 63.0 °F 90% 29.79 in 10.0 mi SSW 9.2 mph - 0.00 in   Overcast
6:56 PM 68.0 °F 63.0 °F 84% 29.80 in 10.0 mi South 8.1 mph - N/A   Mostly Cloudy
7:41 PM 66.9 °F 64.0 °F 90% 29.79 in 10.0 mi South 5.8 mph - 0.01 in   Mostly Cloudy
7:56 PM 66.9 °F 64.0 °F 90% 29.80 in 6.0 mi SSW 18.4 mph 26.5 mph 0.03 in Rain Light Rain
8:03 PM 66.9 °F 64.9 °F 93% 29.79 in 5.0 mi SSW 9.2 mph 26.5 mph 0.01 in Rain Light Rain
8:56 PM 64.9 °F 64.0 °F 97% 29.76 in 10.0 mi SSE 6.9 mph - 0.01 in   Scattered Clouds
9:56 PM 64.0 °F 62.1 °F 93% 29.76 in 10.0 mi South 6.9 mph - N/A   Scattered Clouds
10:56 PM 66.9 °F 64.9 °F 93% 29.75 in 10.0 mi South 9.2 mph - 0.00 in   Overcast
11:56 PM 66.9 °F 63.0 °F 87% 29.75 in 10.0 mi SW 9.2 mph - N/A   Overcast